Regional Weather Roundup
Issued by NWS

Home | Current Version | Previous Version | Text Only | Print | Product List | Glossary Off
Versions: 1 2 3 4 5 6 7 8 9 10 11 12 13 14 15 16 17 18 19 20 21 22 23 24 25 26 27 28 29 30 31 32 33 34 35 36 37 38 39 40 41 42 43 44 45 46 47 48 49 50

000
ASUS44 KMEG 261010
RWRTN
TENNESSEE HOURLY STATE WEATHER ROUNDUP
NATIONAL WEATHER SERVICE MEMPHIS TN
500 AM CDT THU MAR 26 2015

TNZ002-004-019-021-049-052-054-088>092-261100-
WEST TENNESSEE

CITY           SKY/WX    TMP DP  RH WIND       PRES   REMARKS
MEMPHIS INTL   CLOUDY    65  56  72 W6        29.88R
NWS MEMPHIS      N/A     64 N/A N/A MISG        N/A
JACKSON        CLOUDY    63  54  72 W7        29.87R
DYERSBURG      CLOUDY    57  43  58 CALM      29.88F
UNION CITY     CLOUDY    54  54 100 CALM      29.84F
PARIS          CLOUDY    54  52  94 CALM      29.87R
LEXINGTON      CLEAR     61  54  77 SW7       29.86S
SAVANNAH       PTCLDY    63  55  77 S7        29.88F
$$

TNZ008-025-027-028-033-062-065-066-261100-
NORTH MIDDLE TENNESSEE

CITY           SKY/WX    TMP DP  RH WIND       PRES   REMARKS
NASHVILLE      CLOUDY    65  51  60 S15G24    29.86S
CLARKSVILLE    CLOUDY    55  54  96 NW13      29.86R FOG
SMYRNA         MOCLDY    64  54  70 SW10G24   29.88S
COOKEVILLE     CLOUDY    63  57  82 S8        29.88F
CROSSVILLE     CLOUDY    60  55  83 VRB7      29.93F
$$

TNZ061-075-076-078-094-096-097-261100-
SOUTH MIDDLE TENNESSEE

CITY           SKY/WX    TMP DP  RH WIND       PRES   REMARKS
FAYETTEVILLE   MOCLDY    63  54  72 SW8       29.93R
TULLAHOMA      CLOUDY    63  55  77 S7        29.92F
WINCHESTER     MOCLDY    63  57  82 S7        29.93S
MCMINNVILLE    CLOUDY    64  57  77 S6        29.91S
COLUMBIA       CLOUDY    63  63 100 SW15      29.87S
SHELBYVILLE    CLOUDY    63  57  82 S12       29.90F
$$

TNZ017-018-042-046-047-261100-
NORTHEAST TENNESSEE

CITY           SKY/WX    TMP DP  RH WIND       PRES   REMARKS
TRI CITIES     CLOUDY    57  53  86 CALM      29.93F
ELIZABETHTON   SUNNY     54  52  94 CALM      29.94F
$$

TNZ012-013-036-069-073-074-261100-
CENTRAL EAST TENNESSEE

CITY           SKY/WX    TMP DP  RH WIND       PRES   REMARKS
KNOXVILLE      PTCLDY    62  53  72 SW12      29.91F
OAK RIDGE      CLOUDY    64  55  72 SW5       29.94S
GATLINBURG     CLOUDY    54  48  82 CALM      29.91F
MORRISTOWN     SUNNY     57  54  88 W5        29.93S
$$

TNZ083-085-099-261100-
SOUTHEAST TENNESSEE

CITY           SKY/WX    TMP DP  RH WIND       PRES   REMARKS
CHATTANOOGA    CLOUDY    64  59  83 S6        29.93F
$$

SKY/WX REPORTED AS FAIR MEANS FEW OR NO CLOUDS BELOW
12 THOUSAND FEET.



USA.gov is the U.S. government's official web portal to all federal, state and local government web resources and services.